Location: Borgo
(42.3939°N, 9.2791°E)
Time: 21:57:25
(UTC+00:00)

Cosmos 158 Rocket - Pass Details

Date: 24 January 2021
Orbit: 698 x 794 km, 74.0° (Epoch: 03 March)

Event Time Altitude Azimuth Distance (km) Brightness Sun altitude
Rises 17:02:47 0° 344° (NNW) 3,273 7.2 -7.0°
Reaches altitude 10° 17:05:14 10° 350° (N) 2,351 6.4 -7.4°
Maximum altitude 17:10:28 51° 66° (ENE) 996 4.2 -8.3°
Drops below altitude 10° 17:15:41 10° 142° (SE) 2,356 6.3 -9.3°
Sets 17:18:09 0° 147° (SSE) 3,280 7.1 -9.7°
